Theta_e
343 349 359 360 362 362 362 362 361 363 363 364 364 362 362 362 361 360 360 360 360 361 360 360 358 357 358 357 358 357 358 358 357 359 361 361 360 360 362 361 359 354 359
346 351 361 362 362 362 361 362 363 363 363 363 364 362 361 361 360 360 359 360 360 360 360 358 358 357 357 359 358 358 358 360 360 359 359 360 361 359 357 356 359 357 359
346 353 357 363 361 361 361 361 362 362 362 362 363 362 361 359 359 359 360 360 360 359 360 359 358 357 358 358 358 358 358 359 358 358 359 354 357 357 356 358 357 359 358
350 353 356 364 362 361 362 362 363 362 362 362 362 361 359 358 358 358 360 360 360 360 360 359 358 359 359 358 358 358 358 355 357 360 352 353 354 356 358 360 358 358 357
351 355 356 364 362 361 362 363 362 363 363 362 362 361 361 360 361 361 359 360 360 360 360 361 361 361 359 358 359 358 358 358 355 352 349 352 356 357 360 359 358 358 358
352 356 362 362 361 362 362 362 362 362 362 361 361 361 362 361 361 360 361 361 361 360 360 361 360 359 359 359 358 356 357 350 349 346 348 353 355 359 360 359 359 359 357
351 356 357 364 362 362 362 362 362 361 361 361 361 361 361 361 360 361 361 360 361 359 361 360 359 358 357 358 358 355 354 354 342 344 345 351 354 361 360 358 359 358 358
353 356 357 362 362 363 362 362 362 361 360 360 359 360 360 360 360 359 361 360 360 360 360 360 359 358 358 357 356 356 355 356 342 344 346 349 354 358 358 359 358 359 358
353 354 355 357 360 363 362 362 361 361 360 359 358 359 359 360 360 359 359 360 360 360 359 359 358 358 355 354 354 354 354 356 344 344 345 348 356 358 359 358 359 357 357
351 352 353 354 356 356 356 362 361 361 360 359 358 359 357 358 357 355 355 359 360 359 359 358 358 358 356 354 354 354 356 355 344 346 348 348 356 360 359 359 358 358 358
348 349 351 352 352 353 355 357 361 361 359 361 359 359 360 352 349 351 354 355 359 359 359 359 359 358 357 356 355 355 354 350 348 346 346 349 356 360 359 359 358 357 358
344 347 348 350 350 352 358 354 355 354 354 354 354 353 352 351 349 348 352 351 355 359 359 359 359 359 358 353 352 354 351 349 346 343 344 348 353 357 358 359 359 358 357
344 347 348 349 350 350 352 351 351 352 352 351 354 352 350 350 349 348 347 348 349 354 353 353 355 352 353 351 350 349 348 349 349 346 344 348 353 354 358 356 358 357 357
341 345 347 349 350 349 350 350 350 349 350 350 351 351 350 347 348 346 343 345 347 348 348 349 349 350 350 350 348 347 347 347 347 348 349 352 353 352 357 357 357 357 358
340 342 345 348 349 349 348 348 346 345 347 349 351 351 351 348 347 346 345 344 344 346 345 346 346 345 345 348 347 346 344 343 345 347 347 352 354 356 356 356 353 357 356
340 340 344 346 347 348 347 346 345 344 345 347 349 349 350 349 347 346 345 344 344 345 345 344 343 342 342 344 344 345 345 345 345 346 347 347 353 356 357 356 357 353 356
339 339 342 343 345 346 347 346 344 345 347 346 347 348 348 348 346 348 345 344 344 345 344 343 343 344 344 345 345 346 346 346 347 347 345 344 346 352 358 358 358 358 358
340 336 338 344 345 345 344 345 345 346 347 347 347 347 349 348 348 346 346 344 346 346 343 341 342 341 339 340 341 342 344 345 345 345 345 344 344 346 348 355 360 359 358
341 337 337 342 344 344 344 345 345 347 347 347 347 348 348 348 348 348 348 349 349 348 348 347 346 343 341 341 339 341 341 341 342 345 344 342 341 344 347 349 356 359 358
338 340 340 342 343 344 344 347 347 347 348 348 347 347 345 348 349 349 348 346 346 347 347 346 344 344 344 343 343 344 345 345 345 344 344 344 345 341 346 347 347 349 358
340 341 340 341 343 343 345 343 344 344 347 347 344 345 345 346 350 347 345 345 348 345 346 345 347 345 344 344 343 341 342 346 346 346 346 347 347 348 350 352 350 350 349
340 342 342 343 342 344 345 343 346 346 347 350 347 344 346 346 348 347 345 344 347 350 349 348 347 345 345 344 341 336 333 337 340 343 347 347 347 350 348 348 349 352 351
337 340 342 343 343 344 345 348 349 350 348 347 348 350 350 351 351 349 348 349 350 349 348 347 346 345 342 342 344 341 333 328 334 340 341 342 342 342 342 343 346 348 350
334 339 341 344 343 343 346 346 346 342 341 344 345 348 350 351 351 353 350 350 347 346 344 345 347 347 344 338 340 342 342 340 335 332 339 339 342 341 344 343 345 348 350
336 339 341 345 343 344 345 342 344 342 344 346 343 345 344 344 345 343 342 340 340 339 337 336 338 343 344 342 341 341 339 339 338 335 331 334 338 342 344 344 343 345 344
337 342 344 344 343 344 343 340 339 340 341 340 341 341 339 336 336 336 337 335 334 333 332 334 338 336 337 342 344 340 341 337 337 336 332 333 332 337 342 344 345 346 348
Wind_Speed
0 1 10 13 16 16 16 15 14 15 15 15 17 16 14 14 13 12 12 10 10 9 8 8 5 5 6 6 6 5 5 8 10 9 10 11 11 10 10 10 9 8 10
5 2 10 13 14 15 14 14 14 14 15 14 14 13 13 13 13 11 10 9 9 9 7 6 6 6 7 7 8 8 8 8 9 10 10 11 11 10 9 9 9 8 10
6 4 6 12 13 13 13 13 13 13 14 14 12 12 12 12 12 11 10 9 8 7 7 9 7 8 9 9 9 9 10 10 8 8 6 2 5 11 8 9 9 9 8
6 5 5 11 12 12 12 12 12 13 12 11 11 10 12 10 10 9 9 9 9 8 9 10 9 10 9 9 10 9 9 7 3 8 3 3 5 8 9 10 9 9 8
5 5 6 11 11 12 11 11 11 11 11 10 10 9 11 10 9 9 8 9 9 9 10 10 10 10 9 8 8 8 8 8 5 5 3 1 2 9 11 10 10 9 9
6 5 7 11 11 10 10 10 10 10 9 9 9 9 9 9 9 9 8 7 8 9 9 9 9 9 8 8 7 7 9 5 4 3 2 2 2 8 10 9 9 10 8
7 5 7 11 11 10 9 9 9 9 8 7 7 7 5 8 7 7 8 7 8 7 9 9 9 9 8 8 7 7 8 5 3 3 3 2 1 7 10 9 10 10 9
7 6 6 11 11 10 10 10 9 8 8 7 6 4 5 6 6 6 6 6 7 8 9 9 8 8 7 6 5 5 4 4 5 4 3 3 5 7 9 9 9 9 9
4 5 4 6 9 12 10 9 8 8 7 7 6 4 4 7 7 5 6 7 7 8 9 8 7 7 6 4 3 2 3 5 4 2 1 2 5 7 8 8 9 9 9
3 3 4 4 4 5 5 9 8 7 7 6 6 6 5 5 5 7 4 6 7 7 8 8 7 5 5 3 1 1 3 5 3 3 2 2 6 7 7 8 8 8 8
4 5 4 4 3 3 3 4 7 8 6 7 6 7 5 2 2 4 3 6 6 7 6 7 8 7 5 4 3 2 3 2 1 1 1 3 6 7 7 7 7 6 7
7 5 5 5 5 3 3 3 3 3 2 2 2 2 2 2 1 1 2 5 7 7 7 7 7 6 6 2 1 4 1 1 1 2 2 6 8 8 8 7 7 7 8
7 5 7 6 5 5 4 3 2 2 2 2 2 0 1 1 1 1 1 2 2 4 2 3 1 1 2 2 2 1 2 1 2 2 4 9 11 12 11 9 9 9 10
7 8 5 6 5 6 3 3 3 2 1 2 3 3 3 2 2 2 1 2 2 1 2 2 2 2 1 2 3 3 3 3 3 3 5 11 10 12 14 9 9 11 12
8 8 8 6 6 5 5 3 3 3 2 3 3 4 3 3 3 2 2 2 2 1 2 2 2 2 2 4 4 4 5 6 7 3 3 11 12 13 14 11 7 12 14
10 7 7 8 7 6 6 5 4 2 3 4 3 3 4 3 3 3 3 3 3 2 1 2 3 3 3 3 3 5 5 5 5 5 4 5 11 14 15 14 14 14 15
9 8 10 8 7 7 6 5 3 3 3 3 4 4 4 3 3 4 3 3 4 3 4 3 3 2 3 4 6 4 4 6 4 5 4 4 6 13 14 15 16 17 15
9 10 8 8 8 8 6 4 3 3 3 3 3 3 2 2 4 4 3 3 3 4 4 3 4 4 4 4 4 5 4 4 4 5 5 5 4 4 9 15 16 17 19
11 10 9 8 8 6 5 4 4 5 3 3 2 2 3 3 4 3 2 2 3 2 3 3 3 3 3 4 4 4 5 5 7 6 6 7 6 7 4 9 13 14 19
10 9 8 7 7 6 4 3 2 2 2 2 2 2 3 2 2 1 1 2 2 2 1 1 3 2 3 3 4 5 5 5 5 6 9 9 5 7 6 9 6 8 14
7 8 9 9 8 7 3 3 1 3 2 2 3 4 3 2 1 2 2 2 2 2 2 1 1 2 1 1 2 3 2 4 5 5 5 5 7 6 6 6 5 5 7
8 8 9 9 8 6 4 2 3 3 3 2 2 3 4 4 4 4 4 3 4 2 4 3 3 1 1 1 0 0 3 3 2 2 2 3 4 4 4 7 7 6 6
10 11 10 10 11 7 7 3 1 3 2 2 2 2 2 3 3 3 3 2 3 2 1 2 2 1 1 1 3 1 2 2 3 2 2 2 4 3 4 6 8 5 6
11 8 10 10 11 9 8 5 4 4 4 2 3 2 4 5 4 1 2 3 2 2 3 2 2 2 1 2 2 1 4 3 2 3 1 2 3 5 5 4 5 4 7
10 10 8 10 10 10 10 8 5 4 3 3 3 5 6 5 6 6 6 5 5 3 3 3 3 3 1 1 2 1 2 1 1 2 3 3 2 3 4 4 4 4 3
7 7 9 11 11 11 11 8 8 6 5 4 4 4 4 3 4 4 5 4 4 4 4 3 3 4 3 2 1 4 2 1 1 2 2 2 2 3 4 4 6 5 3
Wind_Direction
155 317 125 112 105 105 108 108 104 100 96 99 106 124 133 136 140 147 152 155 144 147 159 147 137 144 144 151 143 128 124 104 120 125 123 121 117 115 114 108 104 105 108
132 178 127 117 110 110 108 110 112 109 111 106 110 124 134 139 141 150 155 152 153 154 159 163 158 143 147 149 145 131 125 121 128 131 136 140 128 119 120 121 115 116 115
141 159 142 124 118 111 115 119 121 120 110 112 122 127 134 140 144 152 157 154 156 148 127 135 149 128 128 136 144 143 142 133 138 129 109 75 138 128 150 130 131 117 124
141 149 153 127 125 124 122 129 123 115 114 119 123 130 137 137 144 153 165 163 163 144 130 129 130 131 127 134 138 141 142 135 139 119 86 96 144 138 136 134 135 128 128
130 146 154 139 136 131 132 128 121 118 122 125 126 134 129 140 146 143 155 158 141 141 130 134 137 131 134 140 135 138 137 132 100 96 77 86 84 141 139 143 134 144 140
135 137 152 149 142 139 136 127 130 122 120 124 130 132 134 143 143 150 146 135 137 140 136 127 124 130 139 143 147 152 140 108 94 94 70 300 119 139 140 143 148 141 142
138 149 145 156 151 147 139 137 133 126 119 121 121 133 144 148 146 152 155 148 147 140 132 130 137 138 145 152 154 155 159 137 123 177 178 164 219 163 152 159 147 147 150
142 152 165 165 161 161 160 149 140 129 122 122 132 155 158 134 162 159 152 150 159 155 144 145 136 136 138 153 160 174 182 179 145 164 169 192 212 191 168 153 158 151 155
143 145 159 160 170 170 166 152 148 141 140 137 145 158 193 157 172 175 167 175 178 164 151 147 141 140 143 158 157 155 101 132 129 142 159 203 230 195 177 173 164 168 161
140 158 171 167 162 158 159 165 164 159 157 152 162 173 181 193 197 133 232 197 195 183 174 162 157 155 156 165 185 94 132 119 161 178 176 229 224 217 185 180 178 174 166
176 191 182 176 177 174 150 188 174 176 178 176 186 188 196 148 61 63 209 215 215 193 191 184 184 187 188 207 248 295 78 108 132 251 268 217 232 226 202 190 186 189 189
189 193 194 187 178 172 181 184 166 196 168 174 202 203 102 144 157 202 253 225 227 220 208 213 217 208 208 176 284 352 31 105 209 242 257 261 243 234 226 211 199 212 209
189 190 192 184 176 184 196 165 181 192 192 204 231 175 126 132 167 123 280 310 0 260 291 271 269 275 240 169 221 227 282 261 204 236 255 258 243 243 234 215 217 216 221
180 197 184 191 183 197 178 194 195 196 204 222 210 211 182 192 208 206 219 249 249 213 260 256 244 229 265 258 229 258 244 245 248 222 233 236 239 234 235 228 222 221 227
201 189 191 177 190 193 196 195 204 202 207 240 238 219 198 202 210 202 201 233 238 236 255 270 294 287 255 242 251 251 276 276 276 269 252 249 250 238 237 238 202 248 237
196 195 184 190 194 186 199 186 193 181 243 242 241 237 222 216 204 205 179 198 229 206 265 264 258 283 279 238 259 232 251 262 244 254 263 253 252 249 241 239 216 222 230
199 192 190 186 181 191 208 202 179 197 221 234 240 238 227 241 213 200 193 210 223 161 213 230 262 274 280 267 261 249 249 256 234 241 245 260 269 254 251 249 236 225 229
181 185 198 202 187 187 185 184 185 209 221 228 211 215 192 208 205 206 197 209 212 196 209 152 219 229 223 248 264 255 253 255 268 244 242 251 244 253 252 248 246 229 228
191 173 185 186 182 177 173 169 189 203 215 231 191 212 241 219 193 195 192 191 186 211 207 187 223 203 207 239 246 259 256 247 250 257 249 252 243 246 241 261 260 239 233
185 180 171 174 160 143 140 135 128 179 205 193 204 179 191 188 171 190 236 190 150 152 220 213 243 191 227 262 275 276 252 233 235 236 248 248 222 235 230 241 242 257 245
169 159 169 157 164 146 145 116 162 209 177 195 210 192 183 110 156 174 242 259 241 214 233 245 291 268 269 167 305 302 280 247 250 248 249 243 250 241 238 246 246 237 244
178 170 160 161 156 151 129 160 179 159 181 160 185 200 196 196 196 185 238 255 236 237 238 236 212 229 263 181 80 18 338 337 328 292 250 247 259 251 242 250 251 241 250
178 176 170 161 152 153 150 151 118 76 56 169 178 118 208 182 202 229 217 255 289 286 299 11 12 139 245 320 209 188 318 285 323 342 5 295 285 273 266 263 255 231 235
194 174 164 151 153 162 155 179 188 168 159 199 79 105 80 69 67 85 28 56 76 64 71 52 41 79 82 300 309 255 261 289 302 318 331 321 307 281 285 280 254 250 238
169 167 162 150 161 161 172 185 201 169 145 116 107 93 83 60 66 65 72 69 61 43 13 33 15 28 126 190 170 223 222 221 226 264 295 310 315 314 300 312 298 280 254
149 154 150 160 170 166 171 181 203 181 158 140 138 115 104 97 72 64 79 77 65 42 29 25 39 43 10 359 41 33 357 338 294 304 244 252 265 301 350 28 31 22 337